Weather observations for the past three days for
Cheboygan, Cheboygan County Airport
Imperial (Metric)
Date Time (edt) Wind (mph) Vis. (mi.) Weather Sky Cond. Temperature (ºF) Relative Humidity Wind Chill (°F) Heat Index (°F) Pressure Precipitation (in)
Air Dwpt 6 hour altimeter (in) sea level (mb) 1 hr 3 hr 6 hr
Max. Min.
21 06:15 NE 8 10.00 Mostly Cloudy BKN041 62.6 55.4 77% 30.11 0.0
21 05:55 NE 7 10.00 Mostly Cloudy BKN041 57.2 55.4 94% 30.1 0.0
21 05:36 Calm 10.00 Partly Cloudy SCT041 57.2 55.4 94% 30.1 0.0
21 05:15 Calm 10.00 Fair CLR 57.2 55.4 94% 30.09 0.0
21 04:55 Calm 10.00 Fair CLR 59 57.2 94% 30.09 0.0
21 04:35 Calm 10.00 Partly Cloudy SCT030 57.2 55.4 94% 30.08 0.0
21 04:15 Calm 10.00 Fair CLR 59 57.2 94% 30.08 0.0
21 03:55 Calm 10.00 Fair CLR 57.2 55.4 94% 30.08 0.0
21 03:35 W 3 10.00 Fair CLR 59 57.2 94% 30.08 0.0
21 03:16 Calm 10.00 Fair CLR 59 57.2 94% 30.08 0.0
21 02:55 Calm 10.00 Fair CLR 59 57.2 94% 30.08 0.0
21 02:35 Calm 10.00 Fair CLR 60.8 59 94% 30.08 0.0
21 02:15 Calm 10.00 Fair CLR 60.8 59 94% 30.08 0.0
21 01:55 Calm 10.00 Fair CLR 62.6 59 88% 30.08 0.0
21 01:35 W 3 10.00 Partly Cloudy SCT085 62.6 59 88% 30.08 0.0
21 01:15 SW 3 10.00 Partly Cloudy SCT085 64.4 60.8 88% 30.08 0.0
21 00:56 W 3 10.00 Mostly Cloudy BKN085 64.4 60.8 88% 30.08 0.0
21 00:35 NW 5 10.00 Partly Cloudy SCT085 64.4 60.8 88% 30.08 0.0
20 23:55 N 7 10.00 Partly Cloudy SCT041 SCT047 SCT090 66.2 60.8 83% 30.08 0.0
20 23:35 N 8 10.00 Overcast SCT040 OVC080 68 62.6 83% 30.08 0.0
20 23:15 N 7 10.00 Overcast BKN030 BKN040 OVC080 68 62.6 83% 30.08 0.0
20 22:55 NW 8 10.00 Overcast OVC028 69.8 66.2 88% 30.07 0.0
20 22:36 NW 3 10.00 Overcast BKN028 BKN043 OVC075 69.8 64.4 83% 30.07 0.0
20 22:15 NW 3 10.00 Overcast SCT034 BKN047 OVC090 71.6 66.2 83% 30.07 0.0
20 21:55 Calm 10.00 Overcast BKN036 BKN041 OVC047 71.6 66.2 83% 30.06 0.0
20 21:35 NW 3 10.00 Overcast BKN036 BKN044 OVC060 71.6 66.2 83% 30.05 0.0
20 21:15 N 5 10.00 Overcast BKN036 BKN047 OVC060 71.6 66.2 83% 30.05 0.0
20 20:55 N 8 10.00 Overcast BKN038 BKN046 OVC060 73.4 64.4 74% 30.04 0.0
20 20:35 W 3 10.00 Mostly Cloudy BKN045 BKN055 73.4 64.4 74% 30.03 0.0
20 20:16 W 3 10.00 Partly Cloudy SCT043 SCT055 75.2 64.4 69% 77 30.03 0.0
20 19:55 W 3 10.00 Partly Cloudy SCT055 SCT070 75.2 64.4 69% 77 30.03 0.0
20 19:35 W 6 10.00 Mostly Cloudy BKN070 77 64.4 65% 79 30.03 0.0
20 19:15 W 7 10.00 Mostly Cloudy BKN070 77 64.4 65% 79 30.03 0.0
20 18:55 W 9 10.00 Fair CLR 77 64.4 65% 79 30.03 0.0
20 18:35 W 8 10.00 Partly Cloudy SCT070 77 64.4 65% 79 30.02 0.0
20 18:15 W 9 10.00 Fair CLR 77 64.4 65% 79 30.03 0.0
20 17:56 W 7 10.00 Fair CLR 78.8 64.4 61% 81 30.03 0.0
20 17:35 W 7 10.00 Fair CLR 77 62.6 61% 79 30.03 0.0
20 17:15 NW 10 10.00 Partly Cloudy SCT050 SCT080 78.8 64.4 61% 81 30.03 0.0
20 16:55 W 9 10.00 Mostly Cloudy SCT060 BKN080 77 62.6 61% 79 30.03 0.0
20 16:35 W 8 10.00 Overcast OVC060 77 62.6 61% 79 30.03 0.0
20 16:15 W 8 10.00 Overcast OVC060 77 62.6 61% 79 30.03 0.0
20 15:55 W 12 10.00 Overcast OVC060 78.8 62.6 58% 80 30.03 0.0
20 15:36 W 9 10.00 Overcast OVC070 80.6 60.8 51% 81 30.03 0.0
20 15:15 W 10 10.00 Overcast BKN070 OVC085 80.6 60.8 51% 81 30.03 0.0
20 14:55 W 10 G 16 10.00 Mostly Cloudy BKN070 BKN085 80.6 60.8 51% 81 30.03 0.0
20 14:35 W 9 G 16 10.00 Mostly Cloudy SCT060 BKN070 80.6 60.8 51% 81 30.03 0.0
20 14:15 W 10 10.00 Partly Cloudy SCT060 82.4 62.6 51% 83 30.03 0.0
20 13:55 W 9 10.00 Fair CLR 80.6 62.6 54% 82 30.03 0.0
20 13:35 W 12 G 18 10.00 Fair CLR 80.6 60.8 51% 81 30.03 0.0
20 13:16 W 9 10.00 Partly Cloudy SCT120 80.6 62.6 54% 82 30.03 0.0
20 12:55 SW 12 10.00 Partly Cloudy SCT120 80.6 62.6 54% 82 30.03 0.0
20 12:35 W 6 10.00 Fair CLR 78.8 62.6 58% 80 30.03 0.0
20 12:15 W 10 10.00 Partly Cloudy SCT120 78.8 64.4 61% 81 30.03 0.0
20 11:55 SW 8 10.00 Partly Cloudy SCT120 78.8 64.4 61% 81 30.04 0.0
20 11:35 W 7 10.00 Fair CLR 77 62.6 61% 79 30.04 0.0
20 11:15 W 6 10.00 Partly Cloudy SCT120 77 62.6 61% 79 30.03 0.0
20 10:56 SW 9 10.00 Fair CLR 77 62.6 61% 79 30.03 0.0
20 10:35 SW 9 10.00 Fair CLR 75.2 62.6 65% 77 30.03 0.0
20 10:15 W 9 10.00 Fair CLR 75.2 62.6 65% 77 30.03 0.0
20 09:55 SW 9 10.00 Fair CLR 73.4 62.6 69% 30.03 0.0
20 09:35 W 10 10.00 Fair CLR 73.4 62.6 69% 30.03 0.0
20 09:15 W 9 10.00 Fair CLR 71.6 62.6 73% 30.04 0.0
20 08:55 W 7 10.00 Fair CLR 69.8 62.6 78% 30.04 0.0
20 08:36 SW 8 10.00 Fair CLR 69.8 60.8 73% 30.04 0.0
20 08:15 SW 8 10.00 Fair CLR 68 60.8 78% 30.03 0.0
20 07:55 SW 7 10.00 Fair CLR 66.2 59 78% 30.03 0.0
20 07:35 W 5 10.00 Fair CLR 64.4 59 83% 30.03 0.0
20 07:15 SW 5 10.00 Fair CLR 62.6 57.2 83% 30.03 0.0
20 06:55 SW 3 10.00 Fair CLR 60.8 57.2 88% 30.03 0.0
20 06:35 NE 5 10.00 Fair CLR 60.8 55.4 83% 30.03 0.0
20 06:16 Calm 10.00 Fair CLR 60.8 55.4 83% 30.03 0.0
20 05:55 Calm 10.00 Fair CLR 62.6 55.4 77% 30.03 0.0
20 05:35 SW 5 10.00 Fair CLR 62.6 55.4 77% 30.03 0.0
20 05:15 SW 5 10.00 Fair CLR 62.6 55.4 77% 30.03 0.0
20 04:55 SW 5 10.00 Fair CLR 62.6 55.4 77% 30.02 0.0
20 04:35 SW 7 10.00 Fair CLR 62.6 55.4 77% 30.02 0.0
20 04:15 SW 6 10.00 Fair CLR 62.6 55.4 77% 30.03 0.0
20 03:56 SW 6 10.00 Partly Cloudy SCT065 64.4 55.4 73% 30.03 0.0
20 03:35 SW 7 10.00 Mostly Cloudy BKN065 64.4 55.4 73% 30.03 0.0
20 03:15 SW 6 10.00 Fair CLR 64.4 53.6 68% 30.03 0.0
20 02:55 SW 7 10.00 Fair CLR 64.4 53.6 68% 30.04 0.0
20 02:35 SW 6 10.00 Fair CLR 64.4 55.4 73% 30.04 0.0
20 02:15 SW 6 10.00 Fair CLR 64.4 55.4 73% 30.04 0.0
20 01:55 SW 6 10.00 Fair CLR 62.6 55.4 77% 30.05 0.0
20 01:36 SW 5 10.00 Fair CLR 62.6 55.4 77% 30.05 0.0
20 01:15 SW 5 10.00 Fair CLR 62.6 55.4 77% 30.06 0.0
20 00:55 Calm 10.00 Fair CLR 62.6 55.4 77% 30.06 0.0
20 00:35 SW 3 10.00 Fair CLR 62.6 55.4 77% 30.06 0.0
20 00:15 SW 5 10.00 Fair CLR 62.6 55.4 77% 30.07 0.0
19 23:55 SW 3 10.00 Fair CLR 62.6 55.4 77% 30.07 0.0
19 23:35 SW 5 10.00 Fair CLR 64.4 55.4 73% 30.07 0.0
19 23:16 SW 6 10.00 Fair CLR 62.6 53.6 73% 30.07 0.0
19 22:55 W 3 10.00 Fair CLR 60.8 53.6 77% 30.08 0.0
19 22:35 Calm 10.00 Fair CLR 62.6 53.6 73% 30.08 0.0
19 22:15 Calm 10.00 Fair CLR 64.4 53.6 68% 30.07 0.0
19 21:55 W 3 10.00 Fair CLR 66.2 53.6 64% 30.07 0.0
19 21:35 SW 5 10.00 Fair CLR 68 53.6 60% 30.06 0.0
19 21:15 SW 5 10.00 Fair CLR 68 53.6 60% 30.05 0.0
19 20:56 Calm 10.00 Fair CLR 69.8 53.6 57% 30.05 0.0
19 20:35 SW 3 10.00 Fair CLR 71.6 53.6 53% 30.05 0.0
19 20:15 W 6 10.00 Fair CLR 73.4 51.8 47% 30.05 0.0
19 19:55 W 9 10.00 Fair CLR 75.2 51.8 44% 78 30.05 0.0
19 19:35 SW 7 G 17 10.00 Fair CLR 75.2 51.8 44% 78 30.06 0.0
19 19:15 W 12 G 16 10.00 Fair CLR 75.2 51.8 44% 78 30.06 0.0
19 18:55 W 10 G 18 10.00 Fair CLR 77 51.8 42% 78 30.06 0.0
19 18:36 W 9 G 17 10.00 Fair CLR 77 51.8 42% 78 30.07 0.0
19 18:15 W 10 G 18 10.00 Fair CLR 77 51.8 42% 78 30.07 0.0
19 17:55 W 13 G 17 10.00 Fair CLR 77 51.8 42% 78 30.08 0.0
19 17:35 W 12 G 17 10.00 Fair CLR 78.8 53.6 42% 79 30.08 0.0
19 17:15 W 12 10.00 Fair CLR 78.8 53.6 42% 79 30.09 0.0
19 16:55 SW 12 G 20 10.00 Fair CLR 78.8 53.6 42% 79 30.08 0.0
19 16:35 W 12 G 21 10.00 Partly Cloudy SCT055 SCT110 78.8 53.6 42% 79 30.08 0.0
19 16:16 W 9 G 16 10.00 Partly Cloudy SCT055 78.8 53.6 42% 79 30.08 0.0
19 15:55 W 13 G 16 10.00 Partly Cloudy SCT065 78.8 53.6 42% 79 30.08 0.0
19 15:35 W 10 G 16 10.00 Mostly Cloudy SCT060 BKN065 80.6 55.4 42% 81 30.09 0.0
19 15:15 W 14 G 17 10.00 Partly Cloudy SCT060 80.6 55.4 42% 81 30.09 0.0
19 14:55 W 10 G 21 10.00 Partly Cloudy SCT060 78.8 53.6 42% 79 30.09 0.0
19 14:35 SW 10 G 17 10.00 Partly Cloudy SCT060 78.8 55.4 45% 79 30.1 0.0
19 14:15 W 10 10.00 Partly Cloudy SCT060 78.8 57.2 48% 80 30.1 0.0
19 13:56 SW 9 G 17 10.00 Fair CLR 78.8 57.2 48% 80 30.1 0.0
19 13:35 W 7 G 16 10.00 Partly Cloudy SCT050 78.8 57.2 48% 80 30.1 0.0
19 13:15 W 8 10.00 Partly Cloudy SCT050 SCT065 77 57.2 51% 79 30.11 0.0
19 12:55 SW 6 10.00 Partly Cloudy SCT045 SCT065 77 57.2 51% 79 30.11 0.0
19 12:35 SW 8 G 12 10.00 Partly Cloudy SCT045 75.2 57.2 54% 78 30.12 0.0
19 12:15 W 8 10.00 Fair CLR 77 55.4 47% 79 30.13 0.0
19 11:55 SW 10 10.00 Fair CLR 75.2 53.6 47% 78 30.13 0.0
19 11:36 W 9 10.00 Fair CLR 75.2 51.8 44% 78 30.13 0.0
19 11:15 W 10 10.00 Fair CLR 75.2 51.8 44% 78 30.13 0.0
19 10:55 W 10 10.00 Fair CLR 73.4 51.8 47% 30.14 0.0
19 10:35 W 9 10.00 Fair CLR 73.4 53.6 50% 30.14 0.0
19 10:15 SW 8 10.00 Fair CLR 71.6 55.4 57% 30.14 0.0
19 09:55 SW 10 10.00 Fair CLR 71.6 53.6 53% 30.15 0.0
19 09:35 SW 7 10.00 Fair CLR 69.8 55.4 60% 30.15 0.0
19 09:16 SW 9 10.00 Fair CLR 68 55.4 64% 30.16 0.0
19 08:55 SW 7 10.00 Fair CLR 66.2 57.2 73% 30.15 0.0
19 08:35 SW 5 10.00 Fair CLR 66.2 57.2 73% 30.15 0.0
19 08:15 SW 3 10.00 Fair CLR 62.6 59 88% 30.15 0.0
19 07:55 SW 3 10.00 Fair CLR 60.8 57.2 88% 30.15 0.0
19 07:35 Calm 10.00 Fair CLR 59 57.2 94% 30.15 0.0
19 07:15 SW 3 10.00 Fair CLR 57.2 55.4 94% 30.14 0.0
19 06:56 Calm 10.00 Fair CLR 53.6 53.6 100% 30.14 0.0
19 06:35 Calm 10.00 Fair CLR 51.8 51.8 100% 30.14 0.0
19 06:15 Calm 10.00 Fair CLR 51.8 50 94% 30.14 0.0
19 05:55 Calm 10.00 Fair CLR 51.8 50 94% 30.14 0.0
19 05:35 Calm 10.00 Fair CLR 50 48.2 94% 30.14 0.0
19 05:15 Calm 10.00 Fair CLR 50 48.2 94% 30.14 0.0
19 04:55 Calm 10.00 Fair CLR 51.8 50 94% 30.14 0.0
19 04:36 Calm 10.00 Fair CLR 51.8 50 94% 30.13 0.0
19 04:15 Calm 10.00 Fair CLR 51.8 51.8 100% 30.13 0.0
19 03:55 Calm 10.00 Fair CLR 53.6 51.8 94% 30.13 0.0
19 03:35 Calm 10.00 Fair CLR 53.6 53.6 100% 30.13 0.0
19 03:15 Calm 10.00 Fair CLR 55.4 53.6 94% 30.13 0.0
19 02:55 SW 5 10.00 Fair CLR 55.4 53.6 94% 30.13 0.0
19 02:35 SW 6 10.00 Fair CLR 55.4 53.6 94% 30.13 0.0
19 02:16 SW 5 10.00 Fair CLR 55.4 53.6 94% 30.13 0.0
19 01:55 W 5 10.00 Fair CLR 55.4 53.6 94% 30.13 0.0
19 01:35 W 3 10.00 Fair CLR 57.2 53.6 88% 30.14 0.0
19 01:15 W 5 10.00 Fair CLR 57.2 53.6 88% 30.14 0.0
19 00:55 SW 6 10.00 Fair CLR 57.2 53.6 88% 30.14 0.0
19 00:35 SW 5 10.00 Fair CLR 55.4 53.6 94% 30.14 0.0
19 00:15 SW 5 10.00 Fair CLR 55.4 53.6 94% 30.14 0.0
18 23:56 Calm 10.00 Fair CLR 57.2 53.6 88% 30.14 0.0
18 23:35 W 3 10.00 Fair CLR 57.2 53.6 88% 30.13 0.0
18 23:15 W 5 10.00 Fair CLR 60.8 53.6 77% 30.13 0.0
18 22:55 W 6 10.00 Fair CLR 60.8 53.6 77% 30.13 0.0
18 22:35 W 7 10.00 Fair CLR 62.6 53.6 73% 30.14 0.0
18 22:15 W 8 10.00 Fair CLR 62.6 53.6 73% 30.14 0.0
18 21:55 W 8 10.00 Fair CLR 62.6 53.6 73% 30.13 0.0
18 21:36 W 7 10.00 Fair CLR 62.6 53.6 73% 30.13 0.0
18 21:15 W 7 10.00 Fair CLR 64.4 53.6 68% 30.13 0.0
18 20:55 W 6 10.00 Fair CLR 66.2 51.8 60% 30.13 0.0
18 20:35 W 7 10.00 Fair CLR 68 51.8 56% 30.13 0.0
18 20:15 W 8 10.00 Fair CLR 69.8 51.8 53% 30.13 0.0
18 19:55 W 8 10.00 Fair CLR 69.8 51.8 53% 30.13 0.0
18 19:35 W 9 10.00 Fair CLR 71.6 50 47% 30.12 0.0
18 19:16 W 7 10.00 Fair CLR 71.6 50 47% 30.12 0.0
18 18:55 W 9 10.00 Fair CLR 73.4 50 44% 30.12 0.0
18 18:35 NW 6 10.00 Fair CLR 73.4 50 44% 30.12 0.0
18 18:15 W 7 10.00 Fair CLR 73.4 50 44% 30.12 0.0
18 17:55 NW 5 G 17 10.00 Fair CLR 73.4 50 44% 30.12 0.0
18 17:35 W 8 10.00 Partly Cloudy SCT060 73.4 50 44% 30.13 0.0
18 17:15 NW 9 10.00 Mostly Cloudy BKN050 73.4 53.6 50% 30.13 0.0
18 16:56 N 5 10.00 Partly Cloudy SCT050 69.8 53.6 57% 30.13 0.0
18 16:35 N 5 10.00 Mostly Cloudy BKN050 71.6 51.8 50% 30.13 0.0
18 16:15 NE 3 10.00 Partly Cloudy SCT050 71.6 53.6 53% 30.13 0.0
18 15:55 NE 6 10.00 Partly Cloudy SCT050 73.4 51.8 47% 30.13 0.0
18 15:35 NE 6 10.00 Partly Cloudy SCT050 71.6 51.8 50% 30.13 0.0
18 15:15 N 5 10.00 Fair CLR 71.6 50 47% 30.13 0.0
18 14:55 N 5 10.00 Fair CLR 71.6 50 47% 30.14 0.0
18 14:36 NE 6 10.00 Fair CLR 71.6 50 47% 30.14 0.0
18 14:15 NW 5 10.00 Partly Cloudy SCT050 71.6 50 47% 30.14 0.0
18 13:55 Calm 10.00 Partly Cloudy SCT050 71.6 50 47% 30.14 0.0
18 13:35 NW 8 10.00 Fair CLR 71.6 50 47% 30.14 0.0
18 13:15 NW 5 10.00 Partly Cloudy SCT049 69.8 50 50% 30.14 0.0
18 12:55 NW 8 10.00 Fair CLR 69.8 51.8 53% 30.15 0.0
18 12:35 NW 6 10.00 Fair CLR 69.8 50 50% 30.15 0.0
18 12:16 NW 8 10.00 Fair CLR 69.8 51.8 53% 30.15 0.0
18 11:55 N 9 10.00 Fair CLR 68 51.8 56% 30.15 0.0
18 11:35 N 8 10.00 Fair CLR 68 50 53% 30.15 0.0
18 11:15 N 9 G 16 10.00 Fair CLR 68 50 53% 30.15 0.0
18 10:55 NW 9 10.00 Fair CLR 68 50 53% 30.15 0.0
18 10:35 N 12 10.00 Fair CLR 68 51.8 56% 30.15 0.0
18 10:15 NW 10 10.00 Fair CLR 66.2 53.6 64% 30.15 0.0
18 09:56 NW 8 10.00 Fair CLR 66.2 53.6 64% 30.15 0.0
18 09:35 N 8 10.00 Fair CLR 64.4 53.6 68% 30.15 0.0
18 09:15 N 10 10.00 Fair CLR 64.4 55.4 73% 30.15 0.0
18 08:55 NW 7 10.00 Fair CLR 64.4 57.2 78% 30.15 0.0
18 08:35 W 7 10.00 Fair CLR 62.6 57.2 83% 30.14 0.0
18 08:15 W 7 10.00 Fair CLR 60.8 57.2 88% 30.14 0.0
18 07:55 W 5 10.00 Fair CLR 59 57.2 94% 30.13 0.0
18 07:36 W 3 10.00 Fair CLR 57.2 55.4 94% 30.13 0.0
18 07:15 W 5 10.00 Fair CLR 57.2 55.4 94% 30.12 0.0
18 06:55 W 5 10.00 Fair CLR 55.4 53.6 94% 30.12 0.0
18 06:35 W 6 10.00 Fair CLR 53.6 51.8 94% 30.11 0.0
Date Time (edt) Wind (mph) Vis. (mi.) Weather Sky Cond. Air Dwpt Max. Min. Relative Humidity Wind Chill (°F) Heat Index (°F) altimeter (in) sea level (mb) 1 hr 3 hr 6 hr
6 hour
Temperature (ºF) Pressure Precipitation (in)